TimeCST,TemperatureF,Dew PointF,Humidity,Sea Level PressureIn,VisibilityMPH,Wind Direction,Wind SpeedMPH,Gust SpeedMPH,PrecipitationIn,Events,Conditions,WindDirDegrees,DateUTC
12:52 AM,35.1,28.9,78,29.89,10.0,West,10.4,-,0.00,,Overcast,280,2013-02-28 06:52:00
1:52 AM,34.0,28.9,82,29.89,6.0,WNW,11.5,-,0.01,Snow,Light Snow,300,2013-02-28 07:52:00
2:31 AM,33.8,28.4,81,29.89,7.0,WNW,8.1,-,0.00,Snow,Light Snow,300,2013-02-28 08:31:00
2:45 AM,33.8,28.4,81,29.88,6.0,WNW,6.9,-,0.00,Snow,Light Snow,300,2013-02-28 08:45:00
2:52 AM,33.1,28.9,85,29.90,7.0,WNW,6.9,-,0.00,,Overcast,290,2013-02-28 08:52:00
3:52 AM,34.0,28.0,79,29.91,10.0,WNW,9.2,-,N/A,,Overcast,290,2013-02-28 09:52:00
4:13 AM,33.8,28.4,81,29.90,10.0,West,6.9,-,N/A,,Overcast,280,2013-02-28 10:13:00
4:52 AM,34.0,27.0,75,29.93,10.0,WNW,13.8,18.4,N/A,,Overcast,300,2013-02-28 10:52:00
5:52 AM,34.0,25.0,70,29.95,10.0,WNW,10.4,-,N/A,,Overcast,290,2013-02-28 11:52:00
6:52 AM,33.1,26.1,75,29.96,10.0,West,9.2,-,N/A,,Overcast,270,2013-02-28 12:52:00
7:52 AM,34.0,26.1,73,29.97,10.0,West,11.5,-,N/A,,Overcast,270,2013-02-28 13:52:00
8:52 AM,36.0,27.0,70,29.99,10.0,West,9.2,-,N/A,,Overcast,270,2013-02-28 14:52:00
9:29 AM,35.6,26.6,70,29.98,10.0,West,18.4,-,N/A,,Overcast,280,2013-02-28 15:29:00
9:41 AM,35.6,26.6,70,29.98,10.0,WNW,11.5,-,N/A,,Overcast,290,2013-02-28 15:41:00
9:52 AM,36.0,27.0,70,30.00,10.0,WNW,10.4,19.6,N/A,,Overcast,300,2013-02-28 15:52:00
10:18 AM,37.4,26.6,65,29.99,10.0,WNW,12.7,-,N/A,,Overcast,290,2013-02-28 16:18:00
10:52 AM,36.0,27.0,70,30.01,10.0,WNW,11.5,-,N/A,,Overcast,300,2013-02-28 16:52:00
11:52 AM,37.9,28.9,70,30.01,10.0,WNW,11.5,-,N/A,,Overcast,300,2013-02-28 17:52:00
12:50 PM,39.2,28.4,65,29.99,10.0,WNW,12.7,-,N/A,,Overcast,300,2013-02-28 18:50:00
12:52 PM,39.0,27.0,62,30.00,10.0,West,11.5,-,N/A,,Overcast,280,2013-02-28 18:52:00
1:05 PM,39.2,28.4,65,29.99,10.0,WNW,10.4,-,N/A,,Overcast,290,2013-02-28 19:05:00
1:52 PM,39.0,27.0,62,30.01,10.0,WNW,10.4,-,N/A,,Overcast,290,2013-02-28 19:52:00
2:22 PM,37.4,26.6,65,30.01,10.0,WNW,9.2,-,N/A,,Overcast,300,2013-02-28 20:22:00
3:52 PM,37.9,28.0,68,30.04,10.0,WNW,9.2,-,N/A,,Overcast,290,2013-02-28 21:52:00
3:59 PM,37.4,28.4,70,30.03,10.0,WNW,10.4,-,N/A,,Overcast,300,2013-02-28 21:59:00
4:52 PM,37.9,28.0,68,30.05,10.0,West,6.9,-,N/A,,Overcast,270,2013-02-28 22:52:00
5:22 PM,37.4,28.4,70,30.04,10.0,West,8.1,-,N/A,,Overcast,280,2013-02-28 23:22:00
5:52 PM,37.0,30.0,76,30.05,10.0,West,8.1,-,N/A,,Overcast,270,2013-02-28 23:52:00
6:04 PM,37.4,28.4,70,30.04,10.0,West,8.1,-,N/A,,Overcast,280,2013-03-01 00:04:00
6:52 PM,37.0,30.0,76,30.06,10.0,West,4.6,-,N/A,,Overcast,280,2013-03-01 00:52:00
7:17 PM,37.4,30.2,75,30.06,10.0,West,5.8,-,N/A,,Overcast,270,2013-03-01 01:17:00
7:52 PM,36.0,30.0,79,30.08,10.0,West,6.9,-,N/A,,Overcast,260,2013-03-01 01:52:00
8:52 PM,36.0,30.9,82,30.07,10.0,West,5.8,-,N/A,,Overcast,280,2013-03-01 02:52:00
9:52 PM,35.1,32.0,89,30.07,7.0,WNW,6.9,-,N/A,,Overcast,290,2013-03-01 03:52:00
10:15 PM,35.6,32.0,87,30.06,5.0,WNW,5.8,-,N/A,,Overcast,300,2013-03-01 04:15:00
10:52 PM,35.1,32.0,89,30.06,5.0,WNW,4.6,-,N/A,,Overcast,290,2013-03-01 04:52:00
11:06 PM,35.6,33.8,93,30.05,6.0,WNW,4.6,-,N/A,,Overcast,300,2013-03-01 05:06:00
11:52 PM,35.1,30.9,85,30.05,6.0,NW,8.1,-,N/A,,Overcast,310,2013-03-01 05:52:00